Year,Month,Day,Hour,Minute,Value (Times are PST for insolation in W/m^2)
2016,07,11,00,00,0.00
2016,07,11,00,01,0.00
2016,07,11,00,02,0.00
2016,07,11,00,03,0.00
2016,07,11,00,04,0.00
2016,07,11,00,05,0.00
2016,07,11,00,06,0.00
2016,07,11,00,07,0.00
2016,07,11,00,08,0.00
2016,07,11,00,09,0.00
2016,07,11,00,10,0.00
2016,07,11,00,11,0.00
2016,07,11,00,12,0.00
2016,07,11,00,13,0.00
2016,07,11,00,14,0.00
2016,07,11,00,15,0.00
2016,07,11,00,16,0.00
2016,07,11,00,17,0.00
2016,07,11,00,18,0.00
2016,07,11,00,19,0.00
2016,07,11,00,20,0.00
2016,07,11,00,21,0.00
2016,07,11,00,22,0.00
2016,07,11,00,23,0.00
2016,07,11,00,24,0.00
2016,07,11,00,25,0.00
2016,07,11,00,26,0.00
2016,07,11,00,27,0.00
2016,07,11,00,28,0.00
2016,07,11,00,29,0.00
2016,07,11,00,30,0.00
2016,07,11,00,31,0.00
2016,07,11,00,32,0.00
2016,07,11,00,33,0.00
2016,07,11,00,34,0.00
2016,07,11,00,35,0.00
2016,07,11,00,36,0.00
2016,07,11,00,37,0.00
2016,07,11,00,38,0.00
2016,07,11,00,39,0.00
2016,07,11,00,40,0.00
2016,07,11,00,41,0.00
2016,07,11,00,42,0.00
2016,07,11,00,43,0.00
2016,07,11,00,44,0.00
2016,07,11,00,45,0.00
2016,07,11,00,46,0.00
2016,07,11,00,47,0.00
2016,07,11,00,48,0.00
2016,07,11,00,49,0.00
2016,07,11,00,50,0.00
2016,07,11,00,51,0.00
2016,07,11,00,52,0.00
2016,07,11,00,53,0.00
2016,07,11,00,54,0.00
2016,07,11,00,55,0.00
2016,07,11,00,56,0.00
2016,07,11,00,57,0.00
2016,07,11,00,58,0.00
2016,07,11,00,59,0.00
2016,07,11,01,00,0.00
2016,07,11,01,01,0.00
2016,07,11,01,02,0.00
2016,07,11,01,03,0.00
2016,07,11,01,04,0.00
2016,07,11,01,05,0.00
2016,07,11,01,06,0.00
2016,07,11,01,07,0.00
2016,07,11,01,08,0.00
2016,07,11,01,09,0.00
2016,07,11,01,10,0.00
2016,07,11,01,11,0.00
2016,07,11,01,12,0.00
2016,07,11,01,13,0.00
2016,07,11,01,14,0.00
2016,07,11,01,15,0.00
2016,07,11,01,16,0.00
2016,07,11,01,17,0.00
2016,07,11,01,18,0.00
2016,07,11,01,19,0.00
2016,07,11,01,20,0.00
2016,07,11,01,21,0.00
2016,07,11,01,22,0.00
2016,07,11,01,23,0.00
2016,07,11,01,24,0.00
2016,07,11,01,25,0.00
2016,07,11,01,26,0.00
2016,07,11,01,27,0.00
2016,07,11,01,28,0.00
2016,07,11,01,29,0.00
2016,07,11,01,30,0.00
2016,07,11,01,31,0.00
2016,07,11,01,32,0.00
2016,07,11,01,33,0.00
2016,07,11,01,34,0.00
2016,07,11,01,35,0.00
2016,07,11,01,36,0.00
2016,07,11,01,37,0.00
2016,07,11,01,38,0.00
2016,07,11,01,39,0.00
2016,07,11,01,40,0.00
2016,07,11,01,41,0.00
2016,07,11,01,42,0.00
2016,07,11,01,43,0.00
2016,07,11,01,44,0.00
2016,07,11,01,45,0.00
2016,07,11,01,46,0.00
2016,07,11,01,47,0.00
2016,07,11,01,48,0.00
2016,07,11,01,49,0.00
2016,07,11,01,50,0.00
2016,07,11,01,51,0.00
2016,07,11,01,52,0.00
2016,07,11,01,53,0.00
2016,07,11,01,54,0.00
2016,07,11,01,55,0.00
2016,07,11,01,56,0.00
2016,07,11,01,57,0.00
2016,07,11,01,58,0.00
2016,07,11,01,59,0.00
2016,07,11,02,00,0.00
2016,07,11,02,01,0.00
2016,07,11,02,02,0.00
2016,07,11,02,03,0.00
2016,07,11,02,04,0.00
2016,07,11,02,05,0.00
2016,07,11,02,06,0.00
2016,07,11,02,07,0.00
2016,07,11,02,08,0.00
2016,07,11,02,09,0.00
2016,07,11,02,10,0.00
2016,07,11,02,11,0.00
2016,07,11,02,12,0.00
2016,07,11,02,13,0.00
2016,07,11,02,14,0.00
2016,07,11,02,15,0.00
2016,07,11,02,16,0.00
2016,07,11,02,17,0.00
2016,07,11,02,18,0.00
2016,07,11,02,19,0.00
2016,07,11,02,20,0.00
2016,07,11,02,21,0.00
2016,07,11,02,22,0.00
2016,07,11,02,23,0.00
2016,07,11,02,24,0.00
2016,07,11,02,25,0.00
2016,07,11,02,26,0.00
2016,07,11,02,27,0.00
2016,07,11,02,28,0.00
2016,07,11,02,29,0.00
2016,07,11,02,30,0.00
2016,07,11,02,31,0.00
2016,07,11,02,32,0.00
2016,07,11,02,33,0.00
2016,07,11,02,34,0.00
2016,07,11,02,35,0.00
2016,07,11,02,36,0.00
2016,07,11,02,37,0.00
2016,07,11,02,38,0.00
2016,07,11,02,39,0.00
2016,07,11,02,40,0.00
2016,07,11,02,41,0.00
2016,07,11,02,42,0.00
2016,07,11,02,43,0.00
2016,07,11,02,44,0.00
2016,07,11,02,45,0.00
2016,07,11,02,46,0.00
2016,07,11,02,47,0.00
2016,07,11,02,48,0.00
2016,07,11,02,49,0.00
2016,07,11,02,50,0.00
2016,07,11,02,51,0.00
2016,07,11,02,52,0.00
2016,07,11,02,53,0.00
2016,07,11,02,54,0.00
2016,07,11,02,55,0.00
2016,07,11,02,56,0.00
2016,07,11,02,57,0.00
2016,07,11,02,58,0.00
2016,07,11,02,59,0.00
2016,07,11,03,00,0.00
2016,07,11,03,01,0.00
2016,07,11,03,02,0.00
2016,07,11,03,03,0.00
2016,07,11,03,04,0.00
2016,07,11,03,05,0.00
2016,07,11,03,06,0.00
2016,07,11,03,07,0.00
2016,07,11,03,08,0.00
2016,07,11,03,09,0.00
2016,07,11,03,10,0.00
2016,07,11,03,11,0.00
2016,07,11,03,12,0.00
2016,07,11,03,13,0.00
2016,07,11,03,14,0.00
2016,07,11,03,15,0.00
2016,07,11,03,16,0.00
2016,07,11,03,17,0.00
2016,07,11,03,18,0.00
2016,07,11,03,19,0.00
2016,07,11,03,20,0.00
2016,07,11,03,21,0.00
2016,07,11,03,22,0.00
2016,07,11,03,23,0.00
2016,07,11,03,24,0.00
2016,07,11,03,25,0.00
2016,07,11,03,26,0.00
2016,07,11,03,27,0.00
2016,07,11,03,28,0.00
2016,07,11,03,29,0.00
2016,07,11,03,30,0.00
2016,07,11,03,31,0.00
2016,07,11,03,32,0.00
2016,07,11,03,33,0.00
2016,07,11,03,34,0.00
2016,07,11,03,35,0.00
2016,07,11,03,36,0.00
2016,07,11,03,37,0.00
2016,07,11,03,38,0.00
2016,07,11,03,39,0.00
2016,07,11,03,40,0.00
2016,07,11,03,41,0.00
2016,07,11,03,42,0.00
2016,07,11,03,43,0.00
2016,07,11,03,44,0.00
2016,07,11,03,45,0.00
2016,07,11,03,46,0.00
2016,07,11,03,47,0.00
2016,07,11,03,48,0.00
2016,07,11,03,49,0.00
2016,07,11,03,50,0.00
2016,07,11,03,51,0.00
2016,07,11,03,52,0.00
2016,07,11,03,53,0.00
2016,07,11,03,54,0.00
2016,07,11,03,55,0.00
2016,07,11,03,56,0.00
2016,07,11,03,57,0.00
2016,07,11,03,58,0.00
2016,07,11,03,59,0.00
2016,07,11,04,00,0.00
2016,07,11,04,01,0.00
2016,07,11,04,02,0.00
2016,07,11,04,03,0.00
2016,07,11,04,04,0.00
2016,07,11,04,05,0.00
2016,07,11,04,06,0.00
2016,07,11,04,07,0.00
2016,07,11,04,08,0.00
2016,07,11,04,09,0.00
2016,07,11,04,10,0.00
2016,07,11,04,11,0.00
2016,07,11,04,12,0.00
2016,07,11,04,13,0.00
2016,07,11,04,14,0.00
2016,07,11,04,15,0.00
2016,07,11,04,16,0.00
2016,07,11,04,17,0.00
2016,07,11,04,18,0.00
2016,07,11,04,19,0.00
2016,07,11,04,20,0.00
2016,07,11,04,21,0.00
2016,07,11,04,22,0.00
2016,07,11,04,23,0.00
2016,07,11,04,24,0.00
2016,07,11,04,25,0.00
2016,07,11,04,26,0.00
2016,07,11,04,27,0.00
2016,07,11,04,28,0.00
2016,07,11,04,29,0.00
2016,07,11,04,30,0.00
2016,07,11,04,31,0.00
2016,07,11,04,32,0.00
2016,07,11,04,33,0.00
2016,07,11,04,34,0.00
2016,07,11,04,35,0.00
2016,07,11,04,36,0.00
2016,07,11,04,37,0.00
2016,07,11,04,38,0.00
2016,07,11,04,39,0.00
2016,07,11,04,40,0.00
2016,07,11,04,41,0.00
2016,07,11,04,42,0.00
2016,07,11,04,43,0.00
2016,07,11,04,44,0.00
2016,07,11,04,45,0.00
2016,07,11,04,46,0.00
2016,07,11,04,47,0.00
2016,07,11,04,48,0.00
2016,07,11,04,49,0.00
2016,07,11,04,50,0.00
2016,07,11,04,51,0.00
2016,07,11,04,52,0.00
2016,07,11,04,53,0.00
2016,07,11,04,54,0.00
2016,07,11,04,55,0.00
2016,07,11,04,56,0.00
2016,07,11,04,57,0.00
2016,07,11,04,58,0.00
2016,07,11,04,59,0.00
2016,07,11,05,00,0.00
2016,07,11,05,01,0.00
2016,07,11,05,02,0.00
2016,07,11,05,03,0.00
2016,07,11,05,04,0.00
2016,07,11,05,05,0.00
2016,07,11,05,06,0.00
2016,07,11,05,07,0.00
2016,07,11,05,08,0.00
2016,07,11,05,09,0.00
2016,07,11,05,10,0.00
2016,07,11,05,11,0.00
2016,07,11,05,12,0.00
2016,07,11,05,13,0.00
2016,07,11,05,14,0.00
2016,07,11,05,15,0.00
2016,07,11,05,16,0.00
2016,07,11,05,17,0.00
2016,07,11,05,18,0.00
2016,07,11,05,19,0.00
2016,07,11,05,20,0.00
2016,07,11,05,21,0.00
2016,07,11,05,22,0.00
2016,07,11,05,23,0.00
2016,07,11,05,24,0.00
2016,07,11,05,25,0.00
2016,07,11,05,26,0.00
2016,07,11,05,27,0.00
2016,07,11,05,28,0.00
2016,07,11,05,29,0.00
2016,07,11,05,30,0.00
2016,07,11,05,31,0.00
2016,07,11,05,32,0.00
2016,07,11,05,33,1.00
2016,07,11,05,34,5.00
2016,07,11,05,35,5.00
2016,07,11,05,36,5.00
2016,07,11,05,37,5.00
2016,07,11,05,38,5.00
2016,07,11,05,39,6.30
2016,07,11,05,40,7.00
2016,07,11,05,41,7.00
2016,07,11,05,42,7.00
2016,07,11,05,43,7.00
2016,07,11,05,44,7.00
2016,07,11,05,45,7.40
2016,07,11,05,46,9.00
2016,07,11,05,47,9.00
2016,07,11,05,48,10.10
2016,07,11,05,49,11.60
2016,07,11,05,50,13.30
2016,07,11,05,51,15.50
2016,07,11,05,52,17.60
2016,07,11,05,53,18.00
2016,07,11,05,54,18.40
2016,07,11,05,55,25.10
2016,07,11,05,56,26.50
2016,07,11,05,57,29.40
2016,07,11,05,58,33.30
2016,07,11,05,59,36.00
2016,07,11,06,00,38.70
2016,07,11,06,01,41.30
2016,07,11,06,02,43.50
2016,07,11,06,03,44.00
2016,07,11,06,04,42.20
2016,07,11,06,05,42.00
2016,07,11,06,06,42.00
2016,07,11,06,07,42.50
2016,07,11,06,08,44.90
2016,07,11,06,09,49.40
2016,07,11,06,10,55.60
2016,07,11,06,11,63.20
2016,07,11,06,12,69.00
2016,07,11,06,13,71.40
2016,07,11,06,14,70.40
2016,07,11,06,15,67.30
2016,07,11,06,16,70.00
2016,07,11,06,17,70.00
2016,07,11,06,18,69.80
2016,07,11,06,19,66.80
2016,07,11,06,20,68.80
2016,07,11,06,21,81.00
2016,07,11,06,22,83.00
2016,07,11,06,23,84.90
2016,07,11,06,24,86.00
2016,07,11,06,25,86.00
2016,07,11,06,26,86.00
2016,07,11,06,27,86.00
2016,07,11,06,28,86.30
2016,07,11,06,29,88.80
2016,07,11,06,30,92.40
2016,07,11,06,31,96.30
2016,07,11,06,32,99.90
2016,07,11,06,33,107.20
2016,07,11,06,34,121.70
2016,07,11,06,35,144.70
2016,07,11,06,36,168.20
2016,07,11,06,37,183.80
2016,07,11,06,38,190.50
2016,07,11,06,39,200.00
2016,07,11,06,40,200.00
2016,07,11,06,41,207.50
2016,07,11,06,42,227.00
2016,07,11,06,43,231.00
2016,07,11,06,44,233.20
2016,07,11,06,45,234.00
2016,07,11,06,46,238.90
2016,07,11,06,47,242.60
2016,07,11,06,48,243.00
2016,07,11,06,49,243.00
2016,07,11,06,50,242.70
2016,07,11,06,51,240.00
2016,07,11,06,52,237.00
2016,07,11,06,53,236.60
2016,07,11,06,54,233.00
2016,07,11,06,55,227.10
2016,07,11,06,56,214.60
2016,07,11,06,57,193.20
2016,07,11,06,58,179.60
2016,07,11,06,59,190.60
2016,07,11,07,00,198.70
2016,07,11,07,01,200.00
2016,07,11,07,02,200.00
2016,07,11,07,03,204.80
2016,07,11,07,04,216.00
2016,07,11,07,05,214.50
2016,07,11,07,06,216.00
2016,07,11,07,07,216.60
2016,07,11,07,08,214.60
2016,07,11,07,09,194.80
2016,07,11,07,10,168.20
2016,07,11,07,11,156.00
2016,07,11,07,12,162.60
2016,07,11,07,13,162.80
2016,07,11,07,14,184.30
2016,07,11,07,15,219.80
2016,07,11,07,16,206.50
2016,07,11,07,17,174.90
2016,07,11,07,18,149.50
2016,07,11,07,19,142.50
2016,07,11,07,20,141.60
2016,07,11,07,21,143.70
2016,07,11,07,22,164.50
2016,07,11,07,23,159.70
2016,07,11,07,24,162.50
2016,07,11,07,25,187.10
2016,07,11,07,26,205.80
2016,07,11,07,27,195.00
2016,07,11,07,28,221.60
2016,07,11,07,29,233.20
2016,07,11,07,30,194.00
2016,07,11,07,31,175.00
2016,07,11,07,32,171.30
2016,07,11,07,33,171.40
2016,07,11,07,34,179.80
2016,07,11,07,35,192.20
2016,07,11,07,36,199.40
2016,07,11,07,37,200.00
2016,07,11,07,38,196.00
2016,07,11,07,39,186.60
2016,07,11,07,40,179.80
2016,07,11,07,41,175.20
2016,07,11,07,42,166.80
2016,07,11,07,43,168.60
2016,07,11,07,44,175.10
2016,07,11,07,45,212.20
2016,07,11,07,46,280.50
2016,07,11,07,47,344.70
2016,07,11,07,48,349.20
2016,07,11,07,49,320.00
2016,07,11,07,50,325.00
2016,07,11,07,51,325.00
2016,07,11,07,52,338.30
2016,07,11,07,53,367.30
2016,07,11,07,54,304.80
2016,07,11,07,55,288.30
2016,07,11,07,56,313.40
2016,07,11,07,57,390.00
2016,07,11,07,58,421.00
2016,07,11,07,59,448.20
2016,07,11,08,00,396.00
2016,07,11,08,01,396.00
2016,07,11,08,02,279.00
2016,07,11,08,03,211.50
2016,07,11,08,04,202.80
2016,07,11,08,05,202.00
2016,07,11,08,06,201.80
2016,07,11,08,07,197.10
2016,07,11,08,08,182.20
2016,07,11,08,09,169.70
2016,07,11,08,10,162.60
2016,07,11,08,11,154.50
2016,07,11,08,12,153.00
2016,07,11,08,13,154.30
2016,07,11,08,14,155.00
2016,07,11,08,15,159.20
2016,07,11,08,16,162.70
2016,07,11,08,17,169.20
2016,07,11,08,18,173.70
2016,07,11,08,19,172.00
2016,07,11,08,20,169.30
2016,07,11,08,21,159.80
2016,07,11,08,22,150.50
2016,07,11,08,23,141.10
2016,07,11,08,24,132.40
2016,07,11,08,25,126.20
2016,07,11,08,26,119.40
2016,07,11,08,27,111.70
2016,07,11,08,28,103.60
2016,07,11,08,29,100.00
2016,07,11,08,30,100.00
2016,07,11,08,31,100.00
2016,07,11,08,32,100.80
2016,07,11,08,33,103.00
2016,07,11,08,34,104.60
2016,07,11,08,35,106.30
2016,07,11,08,36,109.80
2016,07,11,08,37,115.00
2016,07,11,08,38,122.30
2016,07,11,08,39,133.90
2016,07,11,08,40,145.80
2016,07,11,08,41,159.80
2016,07,11,08,42,174.60
2016,07,11,08,43,189.40
2016,07,11,08,44,206.50
2016,07,11,08,45,221.50
2016,07,11,08,46,228.90
2016,07,11,08,47,229.30
2016,07,11,08,48,229.00
2016,07,11,08,49,217.40
2016,07,11,08,50,204.10
2016,07,11,08,51,192.20
2016,07,11,08,52,188.00
2016,07,11,08,53,189.20
2016,07,11,08,54,197.10
2016,07,11,08,55,212.60
2016,07,11,08,56,235.60
2016,07,11,08,57,255.10
2016,07,11,08,58,263.80
2016,07,11,08,59,260.80
2016,07,11,09,00,258.20
2016,07,11,09,01,258.00
2016,07,11,09,02,258.00
2016,07,11,09,03,257.20
2016,07,11,09,04,252.80
2016,07,11,09,05,246.40
2016,07,11,09,06,244.00
2016,07,11,09,07,255.60
2016,07,11,09,08,258.10
2016,07,11,09,09,257.10
2016,07,11,09,10,266.80
2016,07,11,09,11,269.00
2016,07,11,09,12,311.70
2016,07,11,09,13,325.00
2016,07,11,09,14,325.00
2016,07,11,09,15,325.00
2016,07,11,09,16,300.60
2016,07,11,09,17,267.80
2016,07,11,09,18,293.30
2016,07,11,09,19,343.60
2016,07,11,09,20,360.00
2016,07,11,09,21,360.00
2016,07,11,09,22,683.00
2016,07,11,09,23,716.10
2016,07,11,09,24,707.20
2016,07,11,09,25,701.20
2016,07,11,09,26,702.30
2016,07,11,09,27,720.30
2016,07,11,09,28,730.40
2016,07,11,09,29,741.30
2016,07,11,09,30,739.50
2016,07,11,09,31,742.20
2016,07,11,09,32,756.10
2016,07,11,09,33,765.60
2016,07,11,09,34,782.00
2016,07,11,09,35,782.00
2016,07,11,09,36,790.00
2016,07,11,09,37,814.60
2016,07,11,09,38,816.00
2016,07,11,09,39,746.50
2016,07,11,09,40,694.00
2016,07,11,09,41,677.50
2016,07,11,09,42,706.80
2016,07,11,09,43,671.00
2016,07,11,09,44,643.70
2016,07,11,09,45,585.00
2016,07,11,09,46,585.00
2016,07,11,09,47,585.00
2016,07,11,09,48,559.40
2016,07,11,09,49,513.40
2016,07,11,09,50,526.00
2016,07,11,09,51,513.90
2016,07,11,09,52,458.50
2016,07,11,09,53,426.50
2016,07,11,09,54,500.80
2016,07,11,09,55,486.70
2016,07,11,09,56,483.00
2016,07,11,09,57,450.90
2016,07,11,09,58,269.00
2016,07,11,09,59,270.00
2016,07,11,10,00,273.70
2016,07,11,10,01,277.00
2016,07,11,10,02,290.60
2016,07,11,10,03,310.10
2016,07,11,10,04,315.00
2016,07,11,10,05,447.00
2016,07,11,10,06,457.50
2016,07,11,10,07,414.00
2016,07,11,10,08,362.30
2016,07,11,10,09,289.80
2016,07,11,10,10,287.20
2016,07,11,10,11,316.60
2016,07,11,10,12,331.30
2016,07,11,10,13,355.10
2016,07,11,10,14,378.90
2016,07,11,10,15,411.50
2016,07,11,10,16,444.80
2016,07,11,10,17,450.00
2016,07,11,10,18,499.40
2016,07,11,10,19,566.30
2016,07,11,10,20,567.00
2016,07,11,10,21,569.70
2016,07,11,10,22,554.00
2016,07,11,10,23,519.70
2016,07,11,10,24,535.60
2016,07,11,10,25,593.00
2016,07,11,10,26,604.50
2016,07,11,10,27,599.00
2016,07,11,10,28,599.00
2016,07,11,10,29,647.30
2016,07,11,10,30,618.30
2016,07,11,10,31,646.20
2016,07,11,10,32,695.80
2016,07,11,10,33,677.10
2016,07,11,10,34,680.00
2016,07,11,10,35,678.20
2016,07,11,10,36,683.00
2016,07,11,10,37,686.00
2016,07,11,10,38,720.00
2016,07,11,10,39,740.70
2016,07,11,10,40,708.00
2016,07,11,10,41,719.70
2016,07,11,10,42,783.50
2016,07,11,10,43,799.50
2016,07,11,10,44,821.00
2016,07,11,10,45,821.00
2016,07,11,10,46,735.80
2016,07,11,10,47,653.70
2016,07,11,10,48,650.50
2016,07,11,10,49,660.00
2016,07,11,10,50,704.60
2016,07,11,10,51,677.00
2016,07,11,10,52,670.40
2016,07,11,10,53,627.20
2016,07,11,10,54,606.50
2016,07,11,10,55,597.80
2016,07,11,10,56,578.50
2016,07,11,10,57,561.00
2016,07,11,10,58,561.00
2016,07,11,10,59,561.00
2016,07,11,11,00,674.60
2016,07,11,11,01,700.30
2016,07,11,11,02,709.30
2016,07,11,11,03,708.50
2016,07,11,11,04,744.20
2016,07,11,11,05,776.20
2016,07,11,11,06,821.80
2016,07,11,11,07,853.50
2016,07,11,11,08,871.80
2016,07,11,11,09,879.00
2016,07,11,11,10,880.40
2016,07,11,11,11,877.80
2016,07,11,11,12,872.50
2016,07,11,11,13,859.00
2016,07,11,11,14,879.40
2016,07,11,11,15,868.50
2016,07,11,11,16,780.60
2016,07,11,11,17,786.60
2016,07,11,11,18,846.00
2016,07,11,11,19,846.00
2016,07,11,11,20,843.20
2016,07,11,11,21,783.80
2016,07,11,11,22,759.80
2016,07,11,11,23,759.00
2016,07,11,11,24,895.80
2016,07,11,11,25,867.00
2016,07,11,11,26,836.20
2016,07,11,11,27,744.00
2016,07,11,11,28,744.00
2016,07,11,11,29,809.00
2016,07,11,11,30,910.30
2016,07,11,11,31,940.00
2016,07,11,11,32,889.00
2016,07,11,11,33,873.60
2016,07,11,11,34,926.20
2016,07,11,11,35,932.00
2016,07,11,11,36,931.70
2016,07,11,11,37,927.00
2016,07,11,11,38,911.40
2016,07,11,11,39,893.20
2016,07,11,11,40,909.50
2016,07,11,11,41,948.30
2016,07,11,11,42,975.70
2016,07,11,11,43,983.00
2016,07,11,11,44,1019.00
2016,07,11,11,45,1021.70
2016,07,11,11,46,1015.80
2016,07,11,11,47,919.20
2016,07,11,11,48,891.00
2016,07,11,11,49,870.00
2016,07,11,11,50,870.00
2016,07,11,11,51,870.00
2016,07,11,11,52,870.00
2016,07,11,11,53,651.00
2016,07,11,11,54,526.70
2016,07,11,11,55,490.40
2016,07,11,11,56,482.00
2016,07,11,11,57,476.10
2016,07,11,11,58,421.40
2016,07,11,11,59,425.50
2016,07,11,12,00,411.20
2016,07,11,12,01,414.90
2016,07,11,12,02,455.80
2016,07,11,12,03,475.20
2016,07,11,12,04,450.20
2016,07,11,12,05,451.20
2016,07,11,12,06,410.20
2016,07,11,12,07,371.70
2016,07,11,12,08,333.20
2016,07,11,12,09,326.00
2016,07,11,12,10,335.50
2016,07,11,12,11,351.10
2016,07,11,12,12,370.00
2016,07,11,12,13,393.50
2016,07,11,12,14,411.80
2016,07,11,12,15,433.40
2016,07,11,12,16,475.20
2016,07,11,12,17,498.60
2016,07,11,12,18,503.70
2016,07,11,12,19,503.10
2016,07,11,12,20,483.50
2016,07,11,12,21,464.00
2016,07,11,12,22,464.00
2016,07,11,12,23,483.60
2016,07,11,12,24,513.00
2016,07,11,12,25,572.40
2016,07,11,12,26,609.30
2016,07,11,12,27,593.80
2016,07,11,12,28,661.80
2016,07,11,12,29,680.00
2016,07,11,12,30,680.00
2016,07,11,12,31,680.00
2016,07,11,12,32,680.00
2016,07,11,12,33,921.30
2016,07,11,12,34,1404.00
2016,07,11,12,35,1240.00
2016,07,11,12,36,1076.00
2016,07,11,12,37,944.70
2016,07,11,12,38,874.00
2016,07,11,12,39,874.00
2016,07,11,12,40,742.60
2016,07,11,12,41,691.20
2016,07,11,12,42,699.10
2016,07,11,12,43,753.00
2016,07,11,12,44,823.80
2016,07,11,12,45,814.00
2016,07,11,12,46,814.00
2016,07,11,12,47,814.00
2016,07,11,12,48,811.40
2016,07,11,12,49,810.00
2016,07,11,12,50,710.80
2016,07,11,12,51,646.40
2016,07,11,12,52,629.50
2016,07,11,12,53,641.00
2016,07,11,12,54,647.00
2016,07,11,12,55,640.10
2016,07,11,12,56,648.00
2016,07,11,12,57,684.00
2016,07,11,12,58,724.70
2016,07,11,12,59,711.20
2016,07,11,13,00,621.70
2016,07,11,13,01,584.10
2016,07,11,13,02,562.00
2016,07,11,13,03,524.30
2016,07,11,13,04,494.80
2016,07,11,13,05,510.00
2016,07,11,13,06,522.00
2016,07,11,13,07,473.00
2016,07,11,13,08,473.00
2016,07,11,13,09,459.20
2016,07,11,13,10,448.70
2016,07,11,13,11,452.40
2016,07,11,13,12,450.80
2016,07,11,13,13,443.60
2016,07,11,13,14,440.80
2016,07,11,13,15,439.00
2016,07,11,13,16,439.00
2016,07,11,13,17,439.00
2016,07,11,13,18,439.90
2016,07,11,13,19,442.10
2016,07,11,13,20,444.10
2016,07,11,13,21,445.60
2016,07,11,13,22,447.50
2016,07,11,13,23,451.40
2016,07,11,13,24,454.70
2016,07,11,13,25,461.50
2016,07,11,13,26,466.80
2016,07,11,13,27,473.20
2016,07,11,13,28,484.20
2016,07,11,13,29,500.20
2016,07,11,13,30,540.00
2016,07,11,13,31,596.20
2016,07,11,13,32,679.30
2016,07,11,13,33,740.40
2016,07,11,13,34,730.50
2016,07,11,13,35,734.20
2016,07,11,13,36,735.00
2016,07,11,13,37,735.00
2016,07,11,13,38,735.00
2016,07,11,13,39,787.00
2016,07,11,13,40,891.00
2016,07,11,13,41,891.00
2016,07,11,13,42,891.00
2016,07,11,13,43,891.00
2016,07,11,13,44,896.20
2016,07,11,13,45,955.60
2016,07,11,13,46,970.00
2016,07,11,13,47,933.00
2016,07,11,13,48,933.00
2016,07,11,13,49,883.10
2016,07,11,13,50,696.00
2016,07,11,13,51,698.80
2016,07,11,13,52,691.50
2016,07,11,13,53,679.50
2016,07,11,13,54,685.50
2016,07,11,13,55,689.00
2016,07,11,13,56,804.00
2016,07,11,13,57,876.90
2016,07,11,13,58,894.30
2016,07,11,13,59,994.80
2016,07,11,14,00,937.00
2016,07,11,14,01,937.00
2016,07,11,14,02,937.00
2016,07,11,14,03,937.00
2016,07,11,14,04,937.00
2016,07,11,14,05,937.00
2016,07,11,14,06,937.00
2016,07,11,14,07,937.00
2016,07,11,14,08,690.40
2016,07,11,14,09,656.60
2016,07,11,14,10,595.10
2016,07,11,14,11,573.00
2016,07,11,14,12,572.10
2016,07,11,14,13,572.00
2016,07,11,14,14,569.00
2016,07,11,14,15,563.00
2016,07,11,14,16,576.70
2016,07,11,14,17,584.80
2016,07,11,14,18,584.20
2016,07,11,14,19,565.10
2016,07,11,14,20,559.60
2016,07,11,14,21,545.70
2016,07,11,14,22,539.20
2016,07,11,14,23,547.20
2016,07,11,14,24,568.20
2016,07,11,14,25,598.50
2016,07,11,14,26,644.50
2016,07,11,14,27,671.00
2016,07,11,14,28,671.00
2016,07,11,14,29,685.40
2016,07,11,14,30,770.00
2016,07,11,14,31,701.30
2016,07,11,14,32,662.10
2016,07,11,14,33,619.00
2016,07,11,14,34,643.00
2016,07,11,14,35,603.00
2016,07,11,14,36,555.50
2016,07,11,14,37,572.00
2016,07,11,14,38,547.80
2016,07,11,14,39,515.20
2016,07,11,14,40,498.10
2016,07,11,14,41,506.80
2016,07,11,14,42,505.30
2016,07,11,14,43,493.80
2016,07,11,14,44,502.80
2016,07,11,14,45,492.70
2016,07,11,14,46,480.00
2016,07,11,14,47,476.00
2016,07,11,14,48,476.80
2016,07,11,14,49,469.40
2016,07,11,14,50,458.50
2016,07,11,14,51,444.20
2016,07,11,14,52,438.30
2016,07,11,14,53,432.00
2016,07,11,14,54,428.40
2016,07,11,14,55,402.80
2016,07,11,14,56,381.60
2016,07,11,14,57,362.60
2016,07,11,14,58,349.20
2016,07,11,14,59,343.90
2016,07,11,15,00,341.70
2016,07,11,15,01,341.00
2016,07,11,15,02,342.60
2016,07,11,15,03,344.80
2016,07,11,15,04,345.00
2016,07,11,15,05,345.10
2016,07,11,15,06,345.80
2016,07,11,15,07,342.80
2016,07,11,15,08,335.60
2016,07,11,15,09,335.00
2016,07,11,15,10,315.80
2016,07,11,15,11,288.00
2016,07,11,15,12,272.00
2016,07,11,15,13,259.60
2016,07,11,15,14,245.40
2016,07,11,15,15,242.10
2016,07,11,15,16,223.60
2016,07,11,15,17,216.00
2016,07,11,15,18,211.50
2016,07,11,15,19,200.10
2016,07,11,15,20,194.50
2016,07,11,15,21,188.40
2016,07,11,15,22,182.80
2016,07,11,15,23,179.50
2016,07,11,15,24,179.00
2016,07,11,15,25,180.80
2016,07,11,15,26,183.50
2016,07,11,15,27,188.60
2016,07,11,15,28,193.50
2016,07,11,15,29,199.00
2016,07,11,15,30,205.00
2016,07,11,15,31,218.90
2016,07,11,15,32,231.10
2016,07,11,15,33,243.80
2016,07,11,15,34,255.50
2016,07,11,15,35,265.20
2016,07,11,15,36,271.50
2016,07,11,15,37,276.50
2016,07,11,15,38,281.00
2016,07,11,15,39,284.20
2016,07,11,15,40,295.50
2016,07,11,15,41,301.80
2016,07,11,15,42,306.00
2016,07,11,15,43,324.00
2016,07,11,15,44,334.70
2016,07,11,15,45,332.50
2016,07,11,15,46,333.70
2016,07,11,15,47,337.60
2016,07,11,15,48,345.00
2016,07,11,15,49,347.70
2016,07,11,15,50,364.80
2016,07,11,15,51,373.00
2016,07,11,15,52,375.80
2016,07,11,15,53,383.50
2016,07,11,15,54,388.60
2016,07,11,15,55,390.00
2016,07,11,15,56,391.50
2016,07,11,15,57,388.80
2016,07,11,15,58,385.30
2016,07,11,15,59,379.30
2016,07,11,16,00,371.90
2016,07,11,16,01,363.80
2016,07,11,16,02,353.90
2016,07,11,16,03,344.00
2016,07,11,16,04,331.50
2016,07,11,16,05,319.20
2016,07,11,16,06,309.10
2016,07,11,16,07,300.80
2016,07,11,16,08,295.80
2016,07,11,16,09,292.30
2016,07,11,16,10,292.20
2016,07,11,16,11,294.00
2016,07,11,16,12,294.20
2016,07,11,16,13,295.00
2016,07,11,16,14,295.70
2016,07,11,16,15,297.90
2016,07,11,16,16,300.10
2016,07,11,16,17,301.60
2016,07,11,16,18,302.00
2016,07,11,16,19,302.00
2016,07,11,16,20,302.00
2016,07,11,16,21,301.00
2016,07,11,16,22,301.50
2016,07,11,16,23,298.50
2016,07,11,16,24,296.30
2016,07,11,16,25,293.80
2016,07,11,16,26,289.50
2016,07,11,16,27,283.50
2016,07,11,16,28,277.70
2016,07,11,16,29,269.70
2016,07,11,16,30,259.70
2016,07,11,16,31,251.70
2016,07,11,16,32,245.90
2016,07,11,16,33,244.00
2016,07,11,16,34,244.00
2016,07,11,16,35,244.00
2016,07,11,16,36,244.80
2016,07,11,16,37,246.00
2016,07,11,16,38,246.00
2016,07,11,16,39,246.00
2016,07,11,16,40,244.50
2016,07,11,16,41,244.00
2016,07,11,16,42,244.00
2016,07,11,16,43,243.00
2016,07,11,16,44,242.70
2016,07,11,16,45,240.50
2016,07,11,16,46,239.60
2016,07,11,16,47,241.00
2016,07,11,16,48,241.00
2016,07,11,16,49,241.00
2016,07,11,16,50,242.90
2016,07,11,16,51,243.20
2016,07,11,16,52,239.80
2016,07,11,16,53,236.30
2016,07,11,16,54,231.50
2016,07,11,16,55,226.40
2016,07,11,16,56,222.60
2016,07,11,16,57,220.00
2016,07,11,16,58,217.20
2016,07,11,16,59,215.00
2016,07,11,17,00,213.40
2016,07,11,17,01,211.70
2016,07,11,17,02,209.50
2016,07,11,17,03,209.00
2016,07,11,17,04,204.70
2016,07,11,17,05,199.90
2016,07,11,17,06,198.40